Location: Caracas
(10.4880°N, 66.8792°W)
Time: 13:38:33
(UTC+00:00)

SL-8 Rocket - Pass Details

Date: 03 August 2024
Orbit: 955 x 991 km, 82.9° (Epoch: 14 September)

Event Time Altitude Azimuth Distance (km) Brightness Sun altitude
Rises 23:13:10 0° 167° (SSE) 3,674 6.7 -6.2°
Reaches altitude 10° 23:15:49 10° 160° (SSE) 2,731 6.0 -6.8°
Maximum altitude 23:21:40 42° 92° (E) 1,381 4.4 -8.1°
Drops below altitude 10° 23:27:31 10° 23° (NNE) 2,744 6.3 -9.5°
Sets 23:30:10 0° 16° (NNE) 3,693 7.1 -10.1°
